Year,Month,Day,Hour,Minute,Value (Times are PST for temperature in C)
2017,11,15,00,00,-4.00
2017,11,15,00,01,-4.00
2017,11,15,00,02,-4.00
2017,11,15,00,03,-4.00
2017,11,15,00,04,-4.00
2017,11,15,00,05,-4.00
2017,11,15,00,06,-4.00
2017,11,15,00,07,-4.00
2017,11,15,00,08,-4.00
2017,11,15,00,09,-4.00
2017,11,15,00,10,-4.00
2017,11,15,00,11,-4.00
2017,11,15,00,12,-4.00
2017,11,15,00,13,-4.00
2017,11,15,00,14,-4.10
2017,11,15,00,15,-4.10
2017,11,15,00,16,-4.10
2017,11,15,00,17,-4.10
2017,11,15,00,18,-4.10
2017,11,15,00,19,-4.10
2017,11,15,00,20,-4.10
2017,11,15,00,21,-4.10
2017,11,15,00,22,-4.10
2017,11,15,00,23,-4.10
2017,11,15,00,24,-4.10
2017,11,15,00,25,-4.10
2017,11,15,00,26,-4.10
2017,11,15,00,27,-4.10
2017,11,15,00,28,-4.10
2017,11,15,00,29,-4.10
2017,11,15,00,30,-4.10
2017,11,15,00,31,-4.10
2017,11,15,00,32,-4.10
2017,11,15,00,33,-4.10
2017,11,15,00,34,-4.10
2017,11,15,00,35,-4.10
2017,11,15,00,36,-4.10
2017,11,15,00,37,-4.10
2017,11,15,00,38,-4.10
2017,11,15,00,39,-4.10
2017,11,15,00,40,-4.10
2017,11,15,00,41,-4.10
2017,11,15,00,42,-4.10
2017,11,15,00,43,-4.10
2017,11,15,00,44,-4.00
2017,11,15,00,45,-4.00
2017,11,15,00,46,-4.00
2017,11,15,00,47,-4.00
2017,11,15,00,48,-4.00
2017,11,15,00,49,-4.00
2017,11,15,00,50,-4.00
2017,11,15,00,51,-4.00
2017,11,15,00,52,-4.00
2017,11,15,00,53,-4.00
2017,11,15,00,54,-4.00
2017,11,15,00,55,-4.00
2017,11,15,00,56,-4.00
2017,11,15,00,57,-4.00
2017,11,15,00,58,-4.00
2017,11,15,00,59,-4.00
2017,11,15,01,00,-4.00
2017,11,15,01,01,-4.00
2017,11,15,01,02,-4.00
2017,11,15,01,03,-3.90
2017,11,15,01,04,-3.90
2017,11,15,01,05,-3.90
2017,11,15,01,06,-3.90
2017,11,15,01,07,-3.90
2017,11,15,01,08,-3.90
2017,11,15,01,09,-3.90
2017,11,15,01,10,-3.90
2017,11,15,01,11,-3.90
2017,11,15,01,12,-3.90
2017,11,15,01,13,-3.90
2017,11,15,01,14,-3.90
2017,11,15,01,15,-3.90
2017,11,15,01,16,-3.90
2017,11,15,01,17,-3.90
2017,11,15,01,18,-3.90
2017,11,15,01,19,-3.90
2017,11,15,01,20,-3.90
2017,11,15,01,21,-3.90
2017,11,15,01,22,-3.90
2017,11,15,01,23,-3.90
2017,11,15,01,24,-3.90
2017,11,15,01,25,-3.80
2017,11,15,01,26,-3.80
2017,11,15,01,27,-3.80
2017,11,15,01,28,-3.80
2017,11,15,01,29,-3.80
2017,11,15,01,30,-3.80
2017,11,15,01,31,-3.80
2017,11,15,01,32,-3.80
2017,11,15,01,33,-3.80
2017,11,15,01,34,-3.80
2017,11,15,01,35,-3.80
2017,11,15,01,36,-3.80
2017,11,15,01,37,-3.80
2017,11,15,01,38,-3.80
2017,11,15,01,39,-3.80
2017,11,15,01,40,-3.80
2017,11,15,01,41,-3.80
2017,11,15,01,42,-3.80
2017,11,15,01,43,-3.80
2017,11,15,01,44,-3.80
2017,11,15,01,45,-3.80
2017,11,15,01,46,-3.80
2017,11,15,01,47,-3.80
2017,11,15,01,48,-3.80
2017,11,15,01,49,-3.80
2017,11,15,01,50,-3.80
2017,11,15,01,51,-3.80
2017,11,15,01,52,-3.80
2017,11,15,01,53,-3.80
2017,11,15,01,54,-3.80
2017,11,15,01,55,-3.80
2017,11,15,01,56,-3.80
2017,11,15,01,57,-3.80
2017,11,15,01,58,-3.80
2017,11,15,01,59,-3.80
2017,11,15,02,00,-3.80
2017,11,15,02,01,-3.80
2017,11,15,02,02,-3.80
2017,11,15,02,03,-3.70
2017,11,15,02,04,-3.70
2017,11,15,02,05,-3.70
2017,11,15,02,06,-3.70
2017,11,15,02,07,-3.70
2017,11,15,02,08,-3.70
2017,11,15,02,09,-3.70
2017,11,15,02,10,-3.70
2017,11,15,02,11,-3.70
2017,11,15,02,12,-3.70
2017,11,15,02,13,-3.70
2017,11,15,02,14,-3.70
2017,11,15,02,15,-3.70
2017,11,15,02,16,-3.70
2017,11,15,02,17,-3.70
2017,11,15,02,18,-3.70
2017,11,15,02,19,-3.70
2017,11,15,02,20,-3.70
2017,11,15,02,21,-3.70
2017,11,15,02,22,-3.70
2017,11,15,02,23,-3.70
2017,11,15,02,24,-3.70
2017,11,15,02,25,-3.70
2017,11,15,02,26,-3.70
2017,11,15,02,27,-3.70
2017,11,15,02,28,-3.70
2017,11,15,02,29,-3.70
2017,11,15,02,30,-3.70
2017,11,15,02,31,-3.70
2017,11,15,02,32,-3.70
2017,11,15,02,33,-3.70
2017,11,15,02,34,-3.70
2017,11,15,02,35,-3.70
2017,11,15,02,36,-3.70
2017,11,15,02,37,-3.70
2017,11,15,02,38,-3.70
2017,11,15,02,39,-3.70
2017,11,15,02,40,-3.70
2017,11,15,02,41,-3.70
2017,11,15,02,42,-3.70
2017,11,15,02,43,-3.70
2017,11,15,02,44,-3.70
2017,11,15,02,45,-3.70
2017,11,15,02,46,-3.70
2017,11,15,02,47,-3.70
2017,11,15,02,48,-3.70
2017,11,15,02,49,-3.70
2017,11,15,02,50,-3.70
2017,11,15,02,51,-3.70
2017,11,15,02,52,-3.70
2017,11,15,02,53,-3.70
2017,11,15,02,54,-3.70
2017,11,15,02,55,-3.70
2017,11,15,02,56,-3.70
2017,11,15,02,57,-3.70
2017,11,15,02,58,-3.70
2017,11,15,02,59,-3.70
2017,11,15,03,00,-3.70
2017,11,15,03,01,-3.70
2017,11,15,03,02,-3.70
2017,11,15,03,03,-3.70
2017,11,15,03,04,-3.70
2017,11,15,03,05,-3.70
2017,11,15,03,06,-3.70
2017,11,15,03,07,-3.70
2017,11,15,03,08,-3.70
2017,11,15,03,09,-3.70
2017,11,15,03,10,-3.70
2017,11,15,03,11,-3.70
2017,11,15,03,12,-3.70
2017,11,15,03,13,-3.70
2017,11,15,03,14,-3.60
2017,11,15,03,15,-3.60
2017,11,15,03,16,-3.60
2017,11,15,03,17,-3.60
2017,11,15,03,18,-3.60
2017,11,15,03,19,-3.60
2017,11,15,03,20,-3.60
2017,11,15,03,21,-3.60
2017,11,15,03,22,-3.60
2017,11,15,03,23,-3.60
2017,11,15,03,24,-3.60
2017,11,15,03,25,-3.60
2017,11,15,03,26,-3.60
2017,11,15,03,27,-3.60
2017,11,15,03,28,-3.60
2017,11,15,03,29,-3.60
2017,11,15,03,30,-3.60
2017,11,15,03,31,-3.60
2017,11,15,03,32,-3.60
2017,11,15,03,33,-3.60
2017,11,15,03,34,-3.60
2017,11,15,03,35,-3.60
2017,11,15,03,36,-3.60
2017,11,15,03,37,-3.60
2017,11,15,03,38,-3.60
2017,11,15,03,39,-3.60
2017,11,15,03,40,-3.60
2017,11,15,03,41,-3.60
2017,11,15,03,42,-3.60
2017,11,15,03,43,-3.60
2017,11,15,03,44,-3.60
2017,11,15,03,45,-3.60
2017,11,15,03,46,-3.60
2017,11,15,03,47,-3.60
2017,11,15,03,48,-3.60
2017,11,15,03,49,-3.60
2017,11,15,03,50,-3.60
2017,11,15,03,51,-3.60
2017,11,15,03,52,-3.60
2017,11,15,03,53,-3.60
2017,11,15,03,54,-3.50
2017,11,15,03,55,-3.50
2017,11,15,03,56,-3.50
2017,11,15,03,57,-3.50
2017,11,15,03,58,-3.50
2017,11,15,03,59,-3.50
2017,11,15,04,00,-3.50
2017,11,15,04,01,-3.50
2017,11,15,04,02,-3.50
2017,11,15,04,03,-3.50
2017,11,15,04,04,-3.60
2017,11,15,04,05,-3.60
2017,11,15,04,06,-3.60
2017,11,15,04,07,-3.60
2017,11,15,04,08,-3.60
2017,11,15,04,09,-3.60
2017,11,15,04,10,-3.60
2017,11,15,04,11,-3.60
2017,11,15,04,12,-3.60
2017,11,15,04,13,-3.60
2017,11,15,04,14,-3.60
2017,11,15,04,15,-3.60
2017,11,15,04,16,-3.60
2017,11,15,04,17,-3.60
2017,11,15,04,18,-3.60
2017,11,15,04,19,-3.60
2017,11,15,04,20,-3.60
2017,11,15,04,21,-3.60
2017,11,15,04,22,-3.60
2017,11,15,04,23,-3.60
2017,11,15,04,24,-3.60
2017,11,15,04,25,-3.60
2017,11,15,04,26,-3.60
2017,11,15,04,27,-3.60
2017,11,15,04,28,-3.60
2017,11,15,04,29,-3.60
2017,11,15,04,30,-3.60
2017,11,15,04,31,-3.60
2017,11,15,04,32,-3.60
2017,11,15,04,33,-3.60
2017,11,15,04,34,-3.70
2017,11,15,04,35,-3.70
2017,11,15,04,36,-3.70
2017,11,15,04,37,-3.70
2017,11,15,04,38,-3.70
2017,11,15,04,39,-3.70
2017,11,15,04,40,-3.70
2017,11,15,04,41,-3.70
2017,11,15,04,42,-3.70
2017,11,15,04,43,-3.70
2017,11,15,04,44,-3.70
2017,11,15,04,45,-3.70
2017,11,15,04,46,-3.70
2017,11,15,04,47,-3.70
2017,11,15,04,48,-3.70
2017,11,15,04,49,-3.70
2017,11,15,04,50,-3.70
2017,11,15,04,51,-3.70
2017,11,15,04,52,-3.70
2017,11,15,04,53,-3.70
2017,11,15,04,54,-3.70
2017,11,15,04,55,-3.70
2017,11,15,04,56,-3.70
2017,11,15,04,57,-3.70
2017,11,15,04,58,-3.70
2017,11,15,04,59,-3.70
2017,11,15,05,00,-3.70
2017,11,15,05,01,-3.70
2017,11,15,05,02,-3.70
2017,11,15,05,03,-3.70
2017,11,15,05,04,-3.70
2017,11,15,05,05,-3.70
2017,11,15,05,06,-3.70
2017,11,15,05,07,-3.70
2017,11,15,05,08,-3.70
2017,11,15,05,09,-3.70
2017,11,15,05,10,-3.70
2017,11,15,05,11,-3.70
2017,11,15,05,12,-3.70
2017,11,15,05,13,-3.80
2017,11,15,05,14,-3.80
2017,11,15,05,15,-3.80
2017,11,15,05,16,-3.80
2017,11,15,05,17,-3.80
2017,11,15,05,18,-3.80
2017,11,15,05,19,-3.80
2017,11,15,05,20,-3.80
2017,11,15,05,21,-3.80
2017,11,15,05,22,-3.80
2017,11,15,05,23,-3.80
2017,11,15,05,24,-3.80
2017,11,15,05,25,-3.80
2017,11,15,05,26,-3.80
2017,11,15,05,27,-3.80
2017,11,15,05,28,-3.80
2017,11,15,05,29,-3.80
2017,11,15,05,30,-3.80
2017,11,15,05,31,-3.80
2017,11,15,05,32,-3.80
2017,11,15,05,33,-3.80
2017,11,15,05,34,-3.80
2017,11,15,05,35,-3.80
2017,11,15,05,36,-3.80
2017,11,15,05,37,-3.80
2017,11,15,05,38,-3.80
2017,11,15,05,39,-3.80
2017,11,15,05,40,-3.80
2017,11,15,05,41,-3.80
2017,11,15,05,42,-3.80
2017,11,15,05,43,-3.80
2017,11,15,05,44,-3.90
2017,11,15,05,45,-3.90
2017,11,15,05,46,-3.90
2017,11,15,05,47,-3.90
2017,11,15,05,48,-3.90
2017,11,15,05,49,-3.90
2017,11,15,05,50,-3.90
2017,11,15,05,51,-3.90
2017,11,15,05,52,-3.90
2017,11,15,05,53,-3.90
2017,11,15,05,54,-3.90
2017,11,15,05,55,-3.90
2017,11,15,05,56,-3.90
2017,11,15,05,57,-3.90
2017,11,15,05,58,-3.90
2017,11,15,05,59,-3.90
2017,11,15,06,00,-3.90
2017,11,15,06,01,-3.90
2017,11,15,06,02,-3.90
2017,11,15,06,03,-3.90
2017,11,15,06,04,-3.90
2017,11,15,06,05,-3.90
2017,11,15,06,06,-3.90
2017,11,15,06,07,-3.90
2017,11,15,06,08,-3.90
2017,11,15,06,09,-3.90
2017,11,15,06,10,-3.90
2017,11,15,06,11,-3.90
2017,11,15,06,12,-3.90
2017,11,15,06,13,-3.90
2017,11,15,06,14,-4.00
2017,11,15,06,15,-4.00
2017,11,15,06,16,-4.00
2017,11,15,06,17,-4.00
2017,11,15,06,18,-4.00
2017,11,15,06,19,-4.00
2017,11,15,06,20,-4.00
2017,11,15,06,21,-4.00
2017,11,15,06,22,-4.00
2017,11,15,06,23,-4.10
2017,11,15,06,24,-4.10
2017,11,15,06,25,-4.10
2017,11,15,06,26,-4.10
2017,11,15,06,27,-4.10
2017,11,15,06,28,-4.10
2017,11,15,06,29,-4.10
2017,11,15,06,30,-4.10
2017,11,15,06,31,-4.10
2017,11,15,06,32,-4.10
2017,11,15,06,33,-4.10
2017,11,15,06,34,-4.10
2017,11,15,06,35,-4.10
2017,11,15,06,36,-4.10
2017,11,15,06,37,-4.10
2017,11,15,06,38,-4.10
2017,11,15,06,39,-4.10
2017,11,15,06,40,-4.10
2017,11,15,06,41,-4.10
2017,11,15,06,42,-4.10
2017,11,15,06,43,-4.10
2017,11,15,06,44,-4.10
2017,11,15,06,45,-4.10
2017,11,15,06,46,-4.10
2017,11,15,06,47,-4.10
2017,11,15,06,48,-4.10
2017,11,15,06,49,-4.10
2017,11,15,06,50,-4.10
2017,11,15,06,51,-4.10
2017,11,15,06,52,-4.10
2017,11,15,06,53,-4.10
2017,11,15,06,54,-4.20
2017,11,15,06,55,-4.20
2017,11,15,06,56,-4.20
2017,11,15,06,57,-4.20
2017,11,15,06,58,-4.20
2017,11,15,06,59,-4.20
2017,11,15,07,00,-4.20
2017,11,15,07,01,-4.20
2017,11,15,07,02,-4.20
2017,11,15,07,03,-4.20
2017,11,15,07,04,-4.20
2017,11,15,07,05,-4.20
2017,11,15,07,06,-4.20
2017,11,15,07,07,-4.20
2017,11,15,07,08,-4.20
2017,11,15,07,09,-4.20
2017,11,15,07,10,-4.20
2017,11,15,07,11,-4.20
2017,11,15,07,12,-4.20
2017,11,15,07,13,-4.20
2017,11,15,07,14,-4.20
2017,11,15,07,15,-4.20
2017,11,15,07,16,-4.20
2017,11,15,07,17,-4.20
2017,11,15,07,18,-4.20
2017,11,15,07,19,-4.20
2017,11,15,07,20,-4.20
2017,11,15,07,21,-4.20
2017,11,15,07,22,-4.20
2017,11,15,07,23,-4.20
2017,11,15,07,24,-4.20
2017,11,15,07,25,-4.20
2017,11,15,07,26,-4.20
2017,11,15,07,27,-4.20
2017,11,15,07,28,-4.20
2017,11,15,07,29,-4.20
2017,11,15,07,30,-4.20
2017,11,15,07,31,-4.20
2017,11,15,07,32,-4.20
2017,11,15,07,33,-4.20
2017,11,15,07,34,-4.20
2017,11,15,07,35,-4.20
2017,11,15,07,36,-4.20
2017,11,15,07,37,-4.20
2017,11,15,07,38,-4.20
2017,11,15,07,39,-4.20
2017,11,15,07,40,-4.20
2017,11,15,07,41,-4.20
2017,11,15,07,42,-4.20
2017,11,15,07,43,-4.20
2017,11,15,07,44,-4.20
2017,11,15,07,45,-4.20
2017,11,15,07,46,-4.20
2017,11,15,07,47,-4.20
2017,11,15,07,48,-4.20
2017,11,15,07,49,-4.20
2017,11,15,07,50,-4.20
2017,11,15,07,51,-4.20
2017,11,15,07,52,-4.20
2017,11,15,07,53,-4.20
2017,11,15,07,54,-4.20
2017,11,15,07,55,-4.20
2017,11,15,07,56,-4.20
2017,11,15,07,57,-4.20
2017,11,15,07,58,-4.20
2017,11,15,07,59,-4.20
2017,11,15,08,00,-4.20
2017,11,15,08,01,-4.20
2017,11,15,08,02,-4.20
2017,11,15,08,03,-4.20
2017,11,15,08,04,-4.20
2017,11,15,08,05,-4.20
2017,11,15,08,06,-4.20
2017,11,15,08,07,-4.20
2017,11,15,08,08,-4.20
2017,11,15,08,09,-4.20
2017,11,15,08,10,-4.20
2017,11,15,08,11,-4.20
2017,11,15,08,12,-4.20
2017,11,15,08,13,-4.20
2017,11,15,08,14,-4.20
2017,11,15,08,15,-4.20
2017,11,15,08,16,-4.20
2017,11,15,08,17,-4.20
2017,11,15,08,18,-4.20
2017,11,15,08,19,-4.20
2017,11,15,08,20,-4.20
2017,11,15,08,21,-4.20
2017,11,15,08,22,-4.20
2017,11,15,08,23,-4.10
2017,11,15,08,24,-4.10
2017,11,15,08,25,-4.10
2017,11,15,08,26,-4.10
2017,11,15,08,27,-4.10
2017,11,15,08,28,-4.10
2017,11,15,08,29,-4.10
2017,11,15,08,30,-4.10
2017,11,15,08,31,-4.10
2017,11,15,08,32,-4.10
2017,11,15,08,33,-4.10
2017,11,15,08,34,-4.10
2017,11,15,08,35,-4.10
2017,11,15,08,36,-4.10
2017,11,15,08,37,-4.10
2017,11,15,08,38,-4.10
2017,11,15,08,39,-4.10
2017,11,15,08,40,-4.10
2017,11,15,08,41,-4.10
2017,11,15,08,42,-4.10
2017,11,15,08,43,-4.10
2017,11,15,08,44,-3.90
2017,11,15,08,45,-3.90
2017,11,15,08,46,-3.90
2017,11,15,08,47,-3.90
2017,11,15,08,48,-3.90
2017,11,15,08,49,-3.90
2017,11,15,08,50,-3.90
2017,11,15,08,51,-3.90
2017,11,15,08,52,-3.90
2017,11,15,08,53,-3.90
2017,11,15,08,54,-3.90
2017,11,15,08,55,-3.90
2017,11,15,08,56,-3.90
2017,11,15,08,57,-3.90
2017,11,15,08,58,-3.90
2017,11,15,08,59,-3.90
2017,11,15,09,00,-3.90
2017,11,15,09,01,-3.90
2017,11,15,09,02,-3.90
2017,11,15,09,03,-3.80
2017,11,15,09,04,-3.80
2017,11,15,09,05,-3.80
2017,11,15,09,06,-3.80
2017,11,15,09,07,-3.80
2017,11,15,09,08,-3.80
2017,11,15,09,09,-3.80
2017,11,15,09,10,-3.80
2017,11,15,09,11,-3.80
2017,11,15,09,12,-3.80
2017,11,15,09,13,-3.80
2017,11,15,09,14,-3.70
2017,11,15,09,15,-3.70
2017,11,15,09,16,-3.70
2017,11,15,09,17,-3.70
2017,11,15,09,18,-3.70
2017,11,15,09,19,-3.70
2017,11,15,09,20,-3.70
2017,11,15,09,21,-3.70
2017,11,15,09,22,-3.70
2017,11,15,09,23,-3.70
2017,11,15,09,24,-3.60
2017,11,15,09,25,-3.60
2017,11,15,09,26,-3.60
2017,11,15,09,27,-3.60
2017,11,15,09,28,-3.60
2017,11,15,09,29,-3.60
2017,11,15,09,30,-3.60
2017,11,15,09,31,-3.60
2017,11,15,09,32,-3.60
2017,11,15,09,33,-3.50
2017,11,15,09,34,-3.50
2017,11,15,09,35,-3.50
2017,11,15,09,36,-3.50
2017,11,15,09,37,-3.50
2017,11,15,09,38,-3.50
2017,11,15,09,39,-3.50
2017,11,15,09,40,-3.50
2017,11,15,09,41,-3.50
2017,11,15,09,42,-3.50
2017,11,15,09,43,-3.50
2017,11,15,09,44,-3.50
2017,11,15,09,45,-3.40
2017,11,15,09,46,-3.40
2017,11,15,09,47,-3.40
2017,11,15,09,48,-3.40
2017,11,15,09,49,-3.40
2017,11,15,09,50,-3.40
2017,11,15,09,51,-3.40
2017,11,15,09,52,-3.40
2017,11,15,09,53,-3.40
2017,11,15,09,54,-3.40
2017,11,15,09,55,-3.40
2017,11,15,09,56,-3.40
2017,11,15,09,57,-3.40
2017,11,15,09,58,-3.40
2017,11,15,09,59,-3.40
2017,11,15,10,00,-3.40
2017,11,15,10,01,-3.40
2017,11,15,10,02,-3.40
2017,11,15,10,03,-3.40
2017,11,15,10,04,-3.40
2017,11,15,10,05,-3.40
2017,11,15,10,06,-3.40
2017,11,15,10,07,-3.40
2017,11,15,10,08,-3.40
2017,11,15,10,09,-3.40
2017,11,15,10,10,-3.40
2017,11,15,10,11,-3.40
2017,11,15,10,12,-3.40
2017,11,15,10,13,-3.40
2017,11,15,10,14,-3.40
2017,11,15,10,15,-3.40
2017,11,15,10,16,-3.40
2017,11,15,10,17,-3.40
2017,11,15,10,18,-3.40
2017,11,15,10,19,-3.40
2017,11,15,10,20,-3.40
2017,11,15,10,21,-3.40
2017,11,15,10,22,-3.40
2017,11,15,10,23,-3.40
2017,11,15,10,24,-3.40
2017,11,15,10,25,-3.30
2017,11,15,10,26,-3.30
2017,11,15,10,27,-3.30
2017,11,15,10,28,-3.30
2017,11,15,10,29,-3.30
2017,11,15,10,30,-3.30
2017,11,15,10,31,-3.30
2017,11,15,10,32,-3.30
2017,11,15,10,33,-3.30
2017,11,15,10,34,-3.30
2017,11,15,10,35,-3.30
2017,11,15,10,36,-3.30
2017,11,15,10,37,-3.30
2017,11,15,10,38,-3.30
2017,11,15,10,39,-3.30
2017,11,15,10,40,-3.30
2017,11,15,10,41,-3.30
2017,11,15,10,42,-3.30
2017,11,15,10,43,-3.40
2017,11,15,10,44,-3.40
2017,11,15,10,45,-3.40
2017,11,15,10,46,-3.40
2017,11,15,10,47,-3.40
2017,11,15,10,48,-3.40
2017,11,15,10,49,-3.40
2017,11,15,10,50,-3.40
2017,11,15,10,51,-3.40
2017,11,15,10,52,-3.40
2017,11,15,10,53,-3.40
2017,11,15,10,54,-3.40
2017,11,15,10,55,-3.40
2017,11,15,10,56,-3.40
2017,11,15,10,57,-3.40
2017,11,15,10,58,-3.40
2017,11,15,10,59,-3.40
2017,11,15,11,00,-3.40
2017,11,15,11,01,-3.40
2017,11,15,11,02,-3.40
2017,11,15,11,03,-3.40
2017,11,15,11,04,-3.40
2017,11,15,11,05,-3.40
2017,11,15,11,06,-3.40
2017,11,15,11,07,-3.40
2017,11,15,11,08,-3.40
2017,11,15,11,09,-3.40
2017,11,15,11,10,-3.40
2017,11,15,11,11,-3.40
2017,11,15,11,12,-3.40
2017,11,15,11,13,-3.30
2017,11,15,11,14,-3.30
2017,11,15,11,15,-3.30
2017,11,15,11,16,-3.30
2017,11,15,11,17,-3.30
2017,11,15,11,18,-3.30
2017,11,15,11,19,-3.30
2017,11,15,11,20,-3.30
2017,11,15,11,21,-3.30
2017,11,15,11,22,-3.30
2017,11,15,11,23,-3.30
2017,11,15,11,24,-3.30
2017,11,15,11,25,-3.30
2017,11,15,11,26,-3.30
2017,11,15,11,27,-3.30
2017,11,15,11,28,-3.30
2017,11,15,11,29,-3.30
2017,11,15,11,30,-3.30
2017,11,15,11,31,-3.30
2017,11,15,11,32,-3.30
2017,11,15,11,33,-3.30
2017,11,15,11,34,-3.30
2017,11,15,11,35,-3.20
2017,11,15,11,36,-3.20
2017,11,15,11,37,-3.20
2017,11,15,11,38,-3.20
2017,11,15,11,39,-3.20
2017,11,15,11,40,-3.20
2017,11,15,11,41,-3.20
2017,11,15,11,42,-3.20
2017,11,15,11,43,-3.20
2017,11,15,11,44,-3.20
2017,11,15,11,45,-3.10
2017,11,15,11,46,-3.10
2017,11,15,11,47,-3.10
2017,11,15,11,48,-3.10
2017,11,15,11,49,-3.10
2017,11,15,11,50,-3.10
2017,11,15,11,51,-3.10
2017,11,15,11,52,-3.10
2017,11,15,11,53,-3.10
2017,11,15,11,54,-3.10
2017,11,15,11,55,-3.10
2017,11,15,11,56,-3.10
2017,11,15,11,57,-3.10
2017,11,15,11,58,-3.10
2017,11,15,11,59,-3.10
2017,11,15,12,00,-3.10
2017,11,15,12,01,-3.10
2017,11,15,12,02,-3.10
2017,11,15,12,03,-3.10
2017,11,15,12,04,-3.10
2017,11,15,12,05,-3.00
2017,11,15,12,06,-3.00
2017,11,15,12,07,-3.00
2017,11,15,12,08,-3.00
2017,11,15,12,09,-3.00
2017,11,15,12,10,-3.00
2017,11,15,12,11,-3.00
2017,11,15,12,12,-3.00
2017,11,15,12,13,-3.00
2017,11,15,12,14,-3.00
2017,11,15,12,15,-2.90
2017,11,15,12,16,-2.90
2017,11,15,12,17,-2.90
2017,11,15,12,18,-2.90
2017,11,15,12,19,-2.90
2017,11,15,12,20,-2.90
2017,11,15,12,21,-2.90
2017,11,15,12,22,-2.90
2017,11,15,12,23,-2.90
2017,11,15,12,24,-2.80
2017,11,15,12,25,-2.80
2017,11,15,12,26,-2.80
2017,11,15,12,27,-2.80
2017,11,15,12,28,-2.80
2017,11,15,12,29,-2.80
2017,11,15,12,30,-2.80
2017,11,15,12,31,-2.80
2017,11,15,12,32,-2.80
2017,11,15,12,33,-2.80
2017,11,15,12,34,-2.70
2017,11,15,12,35,-2.70
2017,11,15,12,36,-2.70
2017,11,15,12,37,-2.70
2017,11,15,12,38,-2.70
2017,11,15,12,39,-2.70
2017,11,15,12,40,-2.70
2017,11,15,12,41,-2.70
2017,11,15,12,42,-2.70
2017,11,15,12,43,-2.70
2017,11,15,12,44,-2.60
2017,11,15,12,45,-2.60
2017,11,15,12,46,-2.60
2017,11,15,12,47,-2.60
2017,11,15,12,48,-2.60
2017,11,15,12,49,-2.60
2017,11,15,12,50,-2.60
2017,11,15,12,51,-2.60
2017,11,15,12,52,-2.60
2017,11,15,12,53,-2.60
2017,11,15,12,54,-2.60
2017,11,15,12,55,-2.60
2017,11,15,12,56,-2.60
2017,11,15,12,57,-2.60
2017,11,15,12,58,-2.60
2017,11,15,12,59,-2.60
2017,11,15,13,00,-2.60
2017,11,15,13,01,-2.60
2017,11,15,13,02,-2.60
2017,11,15,13,03,-2.50
2017,11,15,13,04,-2.50
2017,11,15,13,05,-2.50
2017,11,15,13,06,-2.50
2017,11,15,13,07,-2.50
2017,11,15,13,08,-2.50
2017,11,15,13,09,-2.50
2017,11,15,13,10,-2.50
2017,11,15,13,11,-2.50
2017,11,15,13,12,-2.50
2017,11,15,13,13,-2.50
2017,11,15,13,14,-2.50
2017,11,15,13,15,-2.40
2017,11,15,13,16,-2.40
2017,11,15,13,17,-2.40
2017,11,15,13,18,-2.40
2017,11,15,13,19,-2.40
2017,11,15,13,20,-2.40
2017,11,15,13,21,-2.40
2017,11,15,13,22,-2.40
2017,11,15,13,23,-2.30
2017,11,15,13,24,-2.30
2017,11,15,13,25,-2.30
2017,11,15,13,26,-2.30
2017,11,15,13,27,-2.30
2017,11,15,13,28,-2.30
2017,11,15,13,29,-2.30
2017,11,15,13,30,-2.30
2017,11,15,13,31,-2.30
2017,11,15,13,32,-2.30
2017,11,15,13,33,-2.30
2017,11,15,13,34,-2.30
2017,11,15,13,35,-2.30
2017,11,15,13,36,-2.30
2017,11,15,13,37,-2.30
2017,11,15,13,38,-2.30
2017,11,15,13,39,-2.30
2017,11,15,13,40,-2.30
2017,11,15,13,41,-2.30
2017,11,15,13,42,-2.30
2017,11,15,13,43,-2.40
2017,11,15,13,44,-2.40
2017,11,15,13,45,-2.40
2017,11,15,13,46,-2.40
2017,11,15,13,47,-2.40
2017,11,15,13,48,-2.40
2017,11,15,13,49,-2.40
2017,11,15,13,50,-2.40
2017,11,15,13,51,-2.40
2017,11,15,13,52,-2.40
2017,11,15,13,53,-2.50
2017,11,15,13,54,-2.50
2017,11,15,13,55,-2.50
2017,11,15,13,56,-2.50
2017,11,15,13,57,-2.50
2017,11,15,13,58,-2.50
2017,11,15,13,59,-2.50
2017,11,15,14,00,-2.50
2017,11,15,14,01,-2.50
2017,11,15,14,02,-2.50
2017,11,15,14,03,-2.60
2017,11,15,14,04,-2.60
2017,11,15,14,05,-2.60
2017,11,15,14,06,-2.60
2017,11,15,14,07,-2.60
2017,11,15,14,08,-2.60
2017,11,15,14,09,-2.60
2017,11,15,14,10,-2.60
2017,11,15,14,11,-2.60
2017,11,15,14,12,-2.60
2017,11,15,14,13,-2.60
2017,11,15,14,14,-2.70
2017,11,15,14,15,-2.70
2017,11,15,14,16,-2.70
2017,11,15,14,17,-2.70
2017,11,15,14,18,-2.70
2017,11,15,14,19,-2.70
2017,11,15,14,20,-2.70
2017,11,15,14,21,-2.70
2017,11,15,14,22,-2.70
2017,11,15,14,23,-2.80
2017,11,15,14,24,-2.80
2017,11,15,14,25,-2.80
2017,11,15,14,26,-2.80
2017,11,15,14,27,-2.80
2017,11,15,14,28,-2.80
2017,11,15,14,29,-2.80
2017,11,15,14,30,-2.80
2017,11,15,14,31,-2.80
2017,11,15,14,32,-2.80
2017,11,15,14,33,-2.80
2017,11,15,14,34,-2.80
2017,11,15,14,35,-2.80
2017,11,15,14,36,-2.80
2017,11,15,14,37,-2.80
2017,11,15,14,38,-2.80
2017,11,15,14,39,-2.80
2017,11,15,14,40,-2.80
2017,11,15,14,41,-2.80
2017,11,15,14,42,-2.80
2017,11,15,14,43,-2.80
2017,11,15,14,44,-2.80
2017,11,15,14,45,-2.80
2017,11,15,14,46,-2.80
2017,11,15,14,47,-2.80
2017,11,15,14,48,-2.80
2017,11,15,14,49,-2.80
2017,11,15,14,50,-2.80
2017,11,15,14,51,-2.80
2017,11,15,14,52,-2.80
2017,11,15,14,53,-2.80
2017,11,15,14,54,-2.80
2017,11,15,14,55,-2.80
2017,11,15,14,56,-2.80
2017,11,15,14,57,-2.80
2017,11,15,14,58,-2.80
2017,11,15,14,59,-2.80
2017,11,15,15,00,-2.80
2017,11,15,15,01,-2.80
2017,11,15,15,02,-2.80
2017,11,15,15,03,-2.80
2017,11,15,15,04,-2.80
2017,11,15,15,05,-2.80
2017,11,15,15,06,-2.80
2017,11,15,15,07,-2.80
2017,11,15,15,08,-2.80
2017,11,15,15,09,-2.80
2017,11,15,15,10,-2.80
2017,11,15,15,11,-2.80
2017,11,15,15,12,-2.80
2017,11,15,15,13,-2.70
2017,11,15,15,14,-2.70
2017,11,15,15,15,-2.70
2017,11,15,15,16,-2.70
2017,11,15,15,17,-2.70
2017,11,15,15,18,-2.70
2017,11,15,15,19,-2.70
2017,11,15,15,20,-2.70
2017,11,15,15,21,-2.70
2017,11,15,15,22,-2.70
2017,11,15,15,23,-2.70
2017,11,15,15,24,-2.70
2017,11,15,15,25,-2.70
2017,11,15,15,26,-2.70
2017,11,15,15,27,-2.70
2017,11,15,15,28,-2.70
2017,11,15,15,29,-2.70
2017,11,15,15,30,-2.70
2017,11,15,15,31,-2.70
2017,11,15,15,32,-2.70
2017,11,15,15,33,-2.70
2017,11,15,15,34,-2.70
2017,11,15,15,35,-2.70
2017,11,15,15,36,-2.70
2017,11,15,15,37,-2.70
2017,11,15,15,38,-2.70
2017,11,15,15,39,-2.70
2017,11,15,15,40,-2.70
2017,11,15,15,41,-2.70
2017,11,15,15,42,-2.70
2017,11,15,15,43,-2.70
2017,11,15,15,44,-2.70
2017,11,15,15,45,-2.70
2017,11,15,15,46,-2.70
2017,11,15,15,47,-2.70
2017,11,15,15,48,-2.70
2017,11,15,15,49,-2.70
2017,11,15,15,50,-2.70
2017,11,15,15,51,-2.70
2017,11,15,15,52,-2.70
2017,11,15,15,53,-2.60
2017,11,15,15,54,-2.60
2017,11,15,15,55,-2.60
2017,11,15,15,56,-2.60
2017,11,15,15,57,-2.60
2017,11,15,15,58,-2.60
2017,11,15,15,59,-2.60
2017,11,15,16,00,-2.60
2017,11,15,16,01,-2.60
2017,11,15,16,02,-2.60
2017,11,15,16,03,-2.60
2017,11,15,16,04,-2.70
2017,11,15,16,05,-2.70
2017,11,15,16,06,-2.70
2017,11,15,16,07,-2.70
2017,11,15,16,08,-2.70
2017,11,15,16,09,-2.70
2017,11,15,16,10,-2.70
2017,11,15,16,11,-2.70
2017,11,15,16,12,-2.70
2017,11,15,16,13,-2.70
2017,11,15,16,14,-2.70
2017,11,15,16,15,-2.70
2017,11,15,16,16,-2.70
2017,11,15,16,17,-2.70
2017,11,15,16,18,-2.70
2017,11,15,16,19,-2.70
2017,11,15,16,20,-2.70
2017,11,15,16,21,-2.70
2017,11,15,16,22,-2.70
2017,11,15,16,23,-2.70
2017,11,15,16,24,-2.80
2017,11,15,16,25,-2.80
2017,11,15,16,26,-2.80
2017,11,15,16,27,-2.80
2017,11,15,16,28,-2.80
2017,11,15,16,29,-2.80
2017,11,15,16,30,-2.80
2017,11,15,16,31,-2.80
2017,11,15,16,32,-2.80
2017,11,15,16,33,-2.80
2017,11,15,16,34,-2.80
2017,11,15,16,35,-2.80
2017,11,15,16,36,-2.80
2017,11,15,16,37,-2.80
2017,11,15,16,38,-2.80
2017,11,15,16,39,-2.80
2017,11,15,16,40,-2.80
2017,11,15,16,41,-2.80
2017,11,15,16,42,-2.80
2017,11,15,16,43,-2.80
2017,11,15,16,44,-2.90
2017,11,15,16,45,-2.90
2017,11,15,16,46,-2.90
2017,11,15,16,47,-2.90
2017,11,15,16,48,-2.90
2017,11,15,16,49,-2.90
2017,11,15,16,50,-2.90
2017,11,15,16,51,-2.90
2017,11,15,16,52,-2.90
2017,11,15,16,53,-2.90
2017,11,15,16,54,-2.90
2017,11,15,16,55,-3.00
2017,11,15,16,56,-3.00
2017,11,15,16,57,-3.00
2017,11,15,16,58,-3.00
2017,11,15,16,59,-3.00
2017,11,15,17,00,-3.00
2017,11,15,17,01,-3.00
2017,11,15,17,02,-3.00
2017,11,15,17,03,-3.10
2017,11,15,17,04,-3.10
2017,11,15,17,05,-3.10
2017,11,15,17,06,-3.10
2017,11,15,17,07,-3.10
2017,11,15,17,08,-3.10
2017,11,15,17,09,-3.10
2017,11,15,17,10,-3.10
2017,11,15,17,11,-3.10
2017,11,15,17,12,-3.10
2017,11,15,17,13,-3.20
2017,11,15,17,14,-3.20
2017,11,15,17,15,-3.20
2017,11,15,17,16,-3.20
2017,11,15,17,17,-3.20
2017,11,15,17,18,-3.20
2017,11,15,17,19,-3.20